Total_Precipitation_Accumulation
1.13 1.58 2.35 2.49 2.29 2.13 2.12 2.28 2.37 2.25 2.22 2.15 2.09 2.12 2.22 2.25 2.34 2.29 2.17 2.22 2.26 2.29 2.14 1.91 1.81 1.73 1.74 1.80 1.73 1.60 1.50 1.49 1.70 1.84 2.00 2.16 2.36 2.52 2.67 2.81 2.73 2.14 2.02
0.91 1.38 2.11 2.21 2.02 1.88 1.96 2.01 2.10 2.03 1.95 1.97 1.98 2.00 1.91 1.91 2.02 2.03 2.04 2.12 2.15 2.18 1.98 1.84 1.68 1.50 1.49 1.50 1.52 1.38 1.38 1.67 2.01 2.25 2.58 2.68 2.75 2.73 2.72 2.81 2.82 2.20 2.02
0.84 1.12 1.68 1.90 1.80 1.76 1.79 1.72 1.77 1.79 1.76 1.92 1.95 1.92 1.80 1.73 1.93 2.02 2.06 2.01 2.15 2.12 1.85 1.74 1.53 1.36 1.36 1.38 1.31 1.28 1.43 1.81 2.36 2.77 2.93 2.65 2.32 2.55 2.61 2.71 2.59 2.04 1.91
0.76 0.88 1.22 1.59 1.60 1.54 1.53 1.56 1.59 1.56 1.55 1.71 1.75 1.76 1.75 1.71 1.92 2.08 2.03 1.98 2.16 2.00 1.83 1.66 1.53 1.33 1.22 1.24 1.26 1.35 1.55 1.88 2.33 2.81 2.69 2.34 1.97 2.13 2.28 2.19 2.11 1.86 1.75
0.65 0.71 1.00 1.31 1.37 1.40 1.42 1.54 1.51 1.37 1.39 1.57 1.66 1.68 1.71 1.78 1.92 2.07 2.00 2.00 2.14 2.14 1.95 1.72 1.56 1.34 1.26 1.21 1.22 1.39 1.63 1.98 2.33 2.43 2.01 2.11 2.24 2.13 2.01 1.91 1.95 1.75 1.49
0.64 0.70 0.87 1.13 1.18 1.27 1.32 1.50 1.46 1.37 1.36 1.47 1.59 1.59 1.63 1.72 1.97 2.11 2.04 2.06 2.08 2.03 1.84 1.66 1.48 1.29 1.20 1.18 1.31 1.44 1.73 2.09 2.09 1.68 1.55 1.72 1.67 1.91 1.82 1.79 1.73 1.51 1.25
0.63 0.71 0.74 1.01 1.11 1.26 1.40 1.52 1.47 1.36 1.28 1.34 1.42 1.41 1.54 1.79 2.04 2.17 2.18 2.14 2.06 1.98 1.73 1.53 1.38 1.24 1.17 1.21 1.37 1.41 1.65 1.98 1.75 1.46 1.41 1.57 1.40 1.58 1.71 1.72 1.70 1.45 1.18
0.60 0.73 0.81 0.99 1.05 1.15 1.33 1.55 1.60 1.41 1.31 1.36 1.48 1.47 1.56 1.81 2.05 2.18 2.29 2.32 2.15 1.99 1.68 1.49 1.28 1.15 1.14 1.22 1.37 1.42 1.55 1.57 1.32 1.19 1.19 1.24 1.22 1.36 1.58 1.50 1.48 1.36 1.12
0.70 0.72 0.84 0.91 1.04 1.12 1.29 1.56 1.63 1.56 1.45 1.53 1.68 1.59 1.65 1.84 2.05 2.16 2.29 2.33 2.16 2.00 1.71 1.47 1.23 1.08 1.11 1.16 1.31 1.38 1.47 1.53 1.30 1.29 1.17 1.08 1.05 1.23 1.50 1.38 1.31 1.33 1.19
0.96 0.82 0.85 0.86 1.07 1.21 1.25 1.43 1.65 1.60 1.53 1.58 1.68 1.70 1.95 2.08 2.13 2.18 2.33 2.37 2.20 1.99 1.67 1.51 1.29 1.12 1.11 1.12 1.25 1.40 1.54 1.45 1.33 1.37 1.23 0.89 0.98 1.28 1.56 1.55 1.51 1.52 1.35
1.21 1.15 1.12 1.02 1.02 1.18 1.21 1.33 1.76 1.81 1.77 1.78 1.84 2.09 2.40 2.70 2.69 2.73 2.64 2.60 2.46 2.16 1.93 1.77 1.59 1.35 1.25 1.16 1.41 1.54 1.39 1.43 1.62 1.53 1.27 0.94 1.03 1.51 1.75 1.79 1.72 1.69 1.63
1.45 1.42 1.55 1.34 1.13 1.11 1.12 1.64 2.28 2.24 2.23 2.33 2.46 2.58 2.93 3.15 3.39 2.93 3.14 3.17 3.08 2.87 2.56 2.40 2.31 1.86 1.41 1.20 1.49 1.64 1.45 1.46 1.62 1.38 1.12 1.05 1.20 1.65 1.90 1.82 1.78 1.75 1.71
1.82 1.64 1.54 1.60 1.55 1.55 1.66 1.80 2.10 2.51 2.69 2.77 2.78 2.78 3.04 2.95 3.05 3.02 3.34 3.75 3.67 3.13 2.68 2.76 2.72 2.13 1.91 2.07 2.02 1.83 1.71 1.54 1.61 1.39 1.27 1.31 1.44 1.82 2.07 1.93 1.92 1.86 1.66
2.43 2.38 2.38 2.26 2.20 2.21 2.07 1.91 1.95 2.18 2.28 2.34 2.44 2.50 2.71 3.03 3.11 3.24 3.52 3.47 3.36 3.08 3.13 2.92 2.96 2.68 2.43 2.23 2.14 2.22 2.15 1.88 1.82 1.77 1.75 1.71 1.78 2.02 2.23 2.12 2.02 2.00 1.87
2.94 3.20 3.74 3.65 3.11 2.79 2.53 2.25 1.91 2.05 1.93 1.74 1.93 2.26 2.40 2.62 2.92 3.09 2.97 2.96 2.63 2.64 2.85 2.92 2.61 2.75 2.65 2.60 2.49 2.43 2.44 2.16 1.97 1.93 1.99 2.16 2.12 2.10 2.30 2.38 2.28 2.24 2.20
3.79 3.84 4.05 4.60 3.97 3.28 2.78 2.47 2.22 2.03 2.07 1.89 2.00 1.98 2.22 2.42 2.51 2.59 2.53 2.61 2.44 2.46 2.54 2.52 2.48 2.76 2.82 2.72 2.36 2.16 2.15 2.16 2.06 1.95 2.13 2.24 2.25 2.06 2.19 2.52 2.69 2.65 2.66
4.36 4.50 4.60 4.93 4.63 4.12 3.58 3.01 2.54 2.34 2.16 2.13 2.18 1.93 1.98 2.15 2.20 2.29 2.32 2.30 2.34 2.26 2.24 2.18 2.23 2.44 2.41 2.36 2.18 2.01 2.03 2.06 2.10 2.09 2.06 2.17 2.20 2.23 2.21 2.38 2.63 2.72 2.90
5.03 5.27 5.31 5.09 5.09 4.73 4.10 3.53 3.12 2.87 2.58 2.32 2.13 1.96 1.78 1.88 1.94 2.08 2.00 1.99 2.00 1.94 1.92 2.07 2.10 2.24 2.36 2.41 2.40 2.13 2.17 2.21 2.06 2.15 2.16 2.15 2.44 2.23 2.47 2.61 2.62 2.60 2.96
6.20 6.64 6.42 5.79 5.39 4.93 4.37 3.89 3.73 3.55 3.12 2.62 2.38 2.19 2.02 1.84 1.81 1.93 2.00 2.05 1.76 1.78 1.83 1.72 2.01 2.15 2.39 2.44 2.05 2.11 1.97 1.96 1.97 1.83 2.07 1.99 2.19 2.32 2.54 2.59 2.66 2.57 2.93
6.53 7.25 7.15 6.51 5.71 5.04 4.69 4.27 4.11 3.79 3.31 2.74 2.48 2.39 2.12 2.00 1.80 1.86 1.78 1.72 1.53 1.69 1.90 2.00 2.40 2.31 2.21 2.22 1.83 2.06 1.89 1.63 1.72 1.82 1.81 1.94 2.04 1.90 2.19 2.53 2.76 2.32 2.67
5.55 6.14 6.02 5.42 4.97 4.47 4.00 3.46 3.39 3.19 2.88 2.58 2.30 2.04 2.01 1.96 1.81 1.89 1.80 1.92 1.65 1.69 1.75 1.72 1.96 2.08 1.98 1.97 2.32 2.43 2.01 1.62 1.67 1.68 1.68 1.92 1.98 1.99 2.33 2.76 2.90 2.80 2.44
4.06 4.32 3.81 3.61 3.63 3.34 3.12 3.04 2.95 2.79 2.48 2.25 2.09 2.07 1.72 1.72 1.70 1.63 1.88 1.78 1.70 1.85 1.84 1.82 1.97 2.07 2.00 2.05 2.28 2.58 2.32 2.28 1.99 1.48 1.71 1.84 1.87 2.10 2.21 2.36 2.69 2.97 2.65
2.87 2.85 2.62 2.55 2.88 2.90 2.91 2.91 2.85 2.81 2.65 2.39 2.08 2.05 1.70 1.55 1.57 1.67 1.69 1.80 1.87 1.60 1.82 1.94 1.90 1.97 2.04 1.97 1.99 2.33 2.35 2.34 2.06 1.59 1.53 1.60 1.79 2.10 2.17 2.30 2.17 2.40 2.59
1.95 2.07 2.33 2.41 2.55 2.50 2.62 2.54 2.38 2.15 2.01 1.91 1.85 1.91 1.90 1.68 1.56 1.48 1.56 1.81 1.92 1.69 1.90 1.55 1.66 1.93 2.05 1.91 1.94 1.83 1.81 1.98 2.13 2.07 1.77 1.60 1.70 1.87 2.02 2.11 2.24 2.42 2.53
1.53 1.78 2.19 2.29 2.33 2.27 2.25 2.31 2.42 2.30 2.24 2.08 2.01 2.19 2.16 2.13 1.91 1.57 1.57 1.79 1.93 1.88 1.93 1.80 2.02 1.85 1.77 1.75 1.80 1.84 1.86 1.81 1.69 1.97 2.09 1.94 1.79 1.58 1.62 1.74 1.86 1.97 2.04
1.39 1.50 1.76 1.92 2.09 2.15 2.20 2.30 2.28 2.29 2.40 2.22 2.08 2.01 1.95 2.00 1.96 1.83 1.79 1.99 1.98 1.93 1.98 1.92 1.96 1.84 1.82 1.83 1.76 1.72 1.98 1.99 1.85 1.99 1.89 1.87 1.81 1.42 1.37 1.48 1.55 1.64 1.77